Flag for Germany Weather past 2 weeks in Westerstede, Lower Saxony, Germany

Now
41 °F

Passing clouds.


Feels Like: 35 °F
Forecast: 38 / 50 °F
Wind: 9 mph from Southwest

Location: Wittmundhaven

Current Time: Mar 6, 2015 at 4:10:32 AM

Latest Report: Mar 6, 2015 at 3:20 AM


Visibility: N/A

Pressure: 30.51 "Hg

Humidity: 87%

Dew point: 37 °F

Location of WesterstedeLocation

Historic Weather in Westerstede — Graph

°F

Westerstede temperature yesterday

Maximum temperature yesterday: 46 °F (at 12:20 PM)
Minimum temperature yesterday: 37 °F (at 1:20 AM)
Average temperature yesterday: 41 °F

Past Weeks' High & Low Weather Summary

 TemperatureHumidityPressure
High48 °F (Feb 26, 3:20 PM)100% (Feb 20, 8:20 AM)30.57 "Hg (Feb 20, 8:20 AM)
Low30 °F (Feb 22, 5:20 AM)53% (Mar 2, 3:20 PM)29.21 "Hg (Feb 23, 6:20 AM)
Average39 °F84%29.80 "Hg
* Reported Feb 19 2:20 AM — Mar 6 2:20 AM, Westerstede, Weather by CustomWeather, © 2015

Note: Actual official high and low records may vary slightly from our data, if they occured in-between our weather recording intervals... More about our weather records

Advertising

Westerstede weather history for previous 24 hours

 ConditionsComfort  
Time TempWeatherWind HumidityBarometerVisibility
2:20 AM
Fri, Mar 6
41 °FPassing clouds.8 mph87%30.51 "HgN/A
1:20 AM41 °FPassing clouds.8 mph87%30.54 "HgN/A
12:20 AM41 °FPassing clouds.9 mph87%30.54 "HgN/A
11:20 PM
Thu, Mar 5
41 °FPassing clouds.9 mph87%30.54 "HgN/A
10:20 PM41 °FPassing clouds.9 mph87%30.54 "HgN/A
9:20 PM41 °FPartly cloudy.8 mph81%30.54 "HgN/A
8:20 PM41 °FPassing clouds.7 mph81%30.54 "HgN/A
7:20 PM41 °FPassing clouds.6 mph87%30.54 "HgN/A
6:20 PM45 °FPassing clouds.13 mph71%30.54 "HgN/A
5:20 PM45 °FPartly sunny.10 mph71%30.57 "HgN/A
4:20 PM45 °FPartly sunny.13 mph71%30.57 "HgN/A
3:20 PM45 °FPartly sunny.13 mph71%30.54 "HgN/A
2:20 PM45 °FPartly sunny.17 mph71%30.54 "HgN/A
1:20 PM45 °FPartly sunny.13 mph71%30.57 "HgN/A
12:20 PM46 °FPartly sunny.14 mph62%30.57 "HgN/A
11:20 AM45 °FPartly sunny.12 mph71%30.57 "HgN/A
10:20 AM43 °FPartly sunny.7 mph87%30.57 "HgN/A
9:20 AM39 °FPartly sunny.6 mph93%30.57 "HgN/A
8:20 AM37 °FPartly sunny.5 mph93%30.54 "HgN/A
7:20 AM37 °FScattered clouds.7 mph93%30.54 "HgN/A
6:20 AM37 °FPassing clouds.7 mph93%30.51 "HgN/A
5:20 AM37 °FPassing clouds.8 mph93%30.51 "HgN/A
4:20 AM37 °FChilly.9 mph93%30.48 "HgN/A
Weather by CustomWeather, © 2015

See weather overviewHow to use our weather pages